Weather History for Rawlins, WY

Change the Weather History Date:

Sunday, February 24, 2013

  Actual Average Record
Temperature  
Mean Temperature 11 °F 26 °F  
Max Temperature 24 °F 36 °F 56 °F (1981)
Min Temperature -3 °F 16 °F -22 °F (2003)
Degree Days  
Heating Degree Days 54 39  
Month to date heating degree days 1025 1003  
Since 1 July heating degree days 5391 5802  
Cooling Degree Days 0 0  
Month to date cooling degree days 0 0  
Year to date cooling degree days 0 0  
Moisture  
Dew Point 13 °F    
Average Humidity 78    
Maximum Humidity 88    
Minimum Humidity 68    
Precipitation  
Precipitation 0.03 in 0.02 in 0.11 in (1956)
Month to date precipitation 0.18 0.35  
Year to date precipitation 0.35 0.71  
Sea Level Pressure  
Sea Level Pressure 29.97 in    
Wind  
Wind Speed 11 mph (North)    
Max Wind Speed 23 mph    
Max Gust Speed 29 mph    
Visibility 4 miles    
Events Fog , Snow    
T = Trace of Precipitation, MM = Missing Value Source: NWS Daily Summary

Daily Weather History Graph

Daily Weather History Graph

Search for Another Location

Airport:

Trip Planner

Search our weather history database for the weather conditions in past years. The results will help you decide how hot, cold, wet, or windy it might be!

Date:

Astronomy

Feb. 24, 2013 Rise Set
Actual Time 6:50 AM MST 5:53 PM MST
Civil Twilight 6:22 AM MST 6:21 PM MST
Nautical Twilight 5:50 AM MST 6:53 PM MST
Astronomical Twilight 5:18 AM MST 7:26 PM MST
Moon 5:07 PM MST (2/24) 5:50 AM MST (2/24)
Length of Visible Light 11h 58m
Length of Day
11h 02m
Waxing Gibbous, 99% of the Moon is Illuminated
Feb 24
Waxing Gibbous
Feb 25
Full
Mar 4
Last Quarter
Mar 11
New
Mar 19
First Quarter

Hourly Weather History & Observations

Time (MST) Temp. Windchill Dew Point Humidity Pressure Visibility Wind Dir Wind Speed Gust Speed Precip Events Conditions
12:33 AM 17.6 °F 7.3 °F 12.2 °F 79% 29.72 in 2.5 mi West 8.1 mph - 0.00 in Snow Light Snow
12:41 AM 17.6 °F 8.2 °F 12.2 °F 79% 29.73 in 1.0 mi WNW 6.9 mph - 0.01 in Snow Light Snow
12:51 AM 17.6 °F 10.7 °F 14.0 °F 86% 29.73 in 0.8 mi WNW 4.6 mph - 0.01 in Snow Light Snow
12:53 AM 17.1 °F 7.6 °F 14.0 °F 88% 29.82 in 0.5 mi WNW 6.9 mph - 0.02 in Fog , Snow Snow
1:16 AM 17.6 °F 10.7 °F 15.8 °F 93% 29.73 in 1.0 mi West 4.6 mph - 0.01 in Snow Light Snow
1:31 AM 17.6 °F 12.3 °F 15.8 °F 93% 29.73 in 1.8 mi NW 3.5 mph - 0.01 in Snow Light Snow
1:38 AM 17.6 °F 8.2 °F 15.8 °F 93% 29.73 in 2.5 mi North 6.9 mph - 0.01 in Snow Light Snow
1:53 AM 19.0 °F 6.8 °F 16.0 °F 88% 29.82 in 4.0 mi North 11.5 mph - 0.01 in Snow Light Snow
2:53 AM 19.9 °F 6.2 °F 14.0 °F 78% 29.84 in 9.0 mi NNE 15.0 mph - 0.00 in   Overcast
3:25 AM 19.4 °F 4.1 °F 15.8 °F 86% 29.76 in 2.0 mi North 18.4 mph - 0.00 in Snow Light Snow
3:49 AM 19.4 °F 4.5 °F 14.0 °F 80% 29.76 in 3.0 mi North 17.3 mph - 0.00 in Snow Light Snow
3:53 AM 19.0 °F 3.2 °F 14.0 °F 81% 29.88 in 3.0 mi North 19.6 mph - 0.00 in Snow Light Snow
4:01 AM 19.4 °F 3.2 °F 14.0 °F 80% 29.77 in 2.5 mi NNE 20.7 mph - 0.00 in Snow Light Snow
4:09 AM 19.4 °F 4.1 °F 14.0 °F 80% 29.77 in 3.0 mi North 18.4 mph - 0.00 in Snow Light Snow
4:28 AM 19.4 °F 4.1 °F 14.0 °F 80% 29.78 in 2.5 mi North 18.4 mph - 0.00 in Snow Light Snow
4:53 AM 19.0 °F 5.0 °F 14.0 °F 81% 29.91 in 2.5 mi NNE 15.0 mph - 0.00 in Snow Light Snow
5:12 AM 19.4 °F 6.0 °F 14.0 °F 80% 29.80 in 3.0 mi NNE 13.8 mph 21.9 mph 0.00 in Snow Light Snow
5:53 AM 19.0 °F 2.4 °F 12.9 °F 77% 29.94 in 4.0 mi North 21.9 mph 25.3 mph 0.00 in Snow Light Snow
6:53 AM 19.0 °F 4.5 °F 12.9 °F 77% 29.97 in 5.0 mi North 16.1 mph - 0.00 in Snow Light Snow
7:53 AM 19.0 °F 5.6 °F 12.9 °F 77% 30.00 in 2.5 mi NNE 13.8 mph - 0.00 in Snow Light Snow
8:04 AM 19.4 °F 5.0 °F 12.2 °F 74% 29.89 in 1.5 mi NNE 16.1 mph - 0.00 in Snow Light Snow
8:46 AM 19.4 °F 5.5 °F 14.0 °F 80% 29.91 in 2.0 mi North 15.0 mph - 0.00 in Snow Light Snow
8:53 AM 19.9 °F 6.7 °F 14.0 °F 78% 30.05 in 2.0 mi North 13.8 mph - 0.00 in Snow Light Snow
9:02 AM 19.4 °F 5.0 °F 15.8 °F 86% 29.92 in 1.2 mi North 16.1 mph - 0.00 in Snow Light Snow
9:22 AM 19.4 °F 7.2 °F 15.8 °F 86% 29.93 in 2.5 mi North 11.5 mph - 0.00 in Snow Light Snow
9:31 AM 19.4 °F 6.0 °F 15.8 °F 86% 29.93 in 4.0 mi North 13.8 mph - 0.00 in Snow Light Snow
9:53 AM 19.9 °F 6.7 °F 15.1 °F 81% 30.09 in 2.0 mi North 13.8 mph - 0.00 in Snow Light Snow
10:25 AM 21.2 °F 7.3 °F 15.8 °F 80% 29.94 in 4.0 mi NNE 16.1 mph - 0.00 in Snow Light Snow
10:53 AM 21.9 °F 8.2 °F 15.1 °F 75% 30.09 in 5.0 mi NNE 16.1 mph - 0.00 in Snow Light Snow
11:44 AM 21.2 °F 7.3 °F 15.8 °F 80% 29.97 in 1.8 mi NNE 16.1 mph - 0.00 in Snow Light Snow
11:53 AM 21.9 °F 9.2 °F 17.1 °F 82% 30.11 in 1.5 mi North 13.8 mph - 0.00 in Snow Light Snow
12:17 PM 21.2 °F 6.4 °F 17.6 °F 86% 29.97 in 1.0 mi North 18.4 mph - 0.00 in Snow Light Snow
12:37 PM 21.2 °F 6.0 °F 17.6 °F 86% 29.96 in 2.0 mi North 19.6 mph - 0.00 in Snow Light Snow
12:53 PM 21.9 °F 7.3 °F 16.0 °F 78% 30.10 in 1.5 mi North 18.4 mph 25.3 mph 0.00 in Snow Light Snow
1:20 PM 23.0 °F 9.6 °F 17.6 °F 80% 29.96 in 2.0 mi North 16.1 mph - 0.00 in Snow Light Snow
1:34 PM 24.8 °F 11.9 °F 17.6 °F 74% 29.96 in 1.8 mi North 16.1 mph - 0.00 in Snow Light Snow
1:42 PM 23.0 °F 9.6 °F 15.8 °F 74% 29.96 in 3.0 mi North 16.1 mph - 0.00 in Snow Light Snow
1:53 PM 21.9 °F 8.2 °F 15.1 °F 75% 30.09 in 3.0 mi North 16.1 mph - 0.00 in Snow Light Snow
2:20 PM 23.0 °F 10.1 °F 17.6 °F 80% 29.97 in 2.5 mi North 15.0 mph - 0.00 in Snow Light Snow
2:27 PM 21.2 °F 7.3 °F 17.6 °F 86% 29.97 in 4.0 mi North 16.1 mph - 0.00 in Snow Light Snow
2:35 PM 21.2 °F 6.8 °F 15.8 °F 80% 29.98 in 1.8 mi North 17.3 mph - 0.00 in Snow Light Snow
2:48 PM 23.0 °F 8.3 °F 15.8 °F 74% 29.98 in 3.0 mi North 19.6 mph - 0.00 in Snow Light Snow
2:53 PM 21.9 °F 6.9 °F 16.0 °F 78% 30.11 in 2.5 mi North 19.6 mph - 0.00 in Snow Light Snow
3:06 PM 23.0 °F 9.2 °F 15.8 °F 74% 29.98 in 7.0 mi North 17.3 mph - 0.00 in Snow Light Snow
3:34 PM 21.2 °F 9.5 °F 14.0 °F 74% 29.99 in 10.0 mi North 11.5 mph - 0.00 in   Overcast
3:53 PM 21.9 °F 9.8 °F 12.9 °F 68% 30.13 in 10.0 mi NNE 12.7 mph - 0.00 in   Overcast
4:26 PM 21.2 °F 8.9 °F 14.0 °F 74% 30.02 in 6.0 mi NNE 12.7 mph - 0.00 in Snow Light Snow
4:53 PM 21.9 °F 11.7 °F 12.9 °F 68% 30.15 in 10.0 mi NNE 9.2 mph - 0.00 in   Mostly Cloudy
5:53 PM 19.9 °F - 12.0 °F 71% 30.19 in 10.0 mi Calm Calm - N/A   Overcast
6:33 PM 15.8 °F - 10.4 °F 79% 30.05 in 10.0 mi Calm Calm - N/A   Overcast
6:51 PM 8.6 °F - 3.2 °F 79% 30.05 in 10.0 mi Calm Calm - N/A   Scattered Clouds
6:53 PM 7.0 °F - 3.0 °F 84% 30.26 in 10.0 mi Calm Calm - N/A   Partly Cloudy
7:53 PM 6.1 °F -0.9 °F 1.9 °F 83% 30.28 in 10.0 mi West 3.5 mph - N/A   Clear
8:53 PM -0.0 °F - -4.0 °F 83% 30.30 in 10.0 mi Calm Calm - N/A   Clear
9:53 PM -2.9 °F - -7.1 °F 82% 30.31 in 10.0 mi Calm Calm - N/A   Clear
10:53 PM 1.0 °F - -4.0 °F 79% 30.27 in 10.0 mi Calm Calm - N/A   Clear
11:53 PM 3.0 °F -4.4 °F -0.0 °F 87% 30.26 in 10.0 mi West 3.5 mph - N/A   Clear